Regional Weather Roundup
Issued by NWS

Home | Current Version | Previous Version | Text Only | Print | Product List | Glossary Off
Versions: 1 2 3 4 5 6 7 8 9 10 11 12 13 14 15 16 17 18 19 20 21 22 23 24 25 26 27 28 29 30 31 32 33 34 35 36 37 38 39 40 41 42 43 44 45 46 47 48 49

000
ASUS45 KBOU 220807
RWRCO

WEATHER ROUNDUP FOR COLORADO
NATIONAL WEATHER SERVICE DENVER/BOULDER CO
100 AM MST MON DEC 22 2014

NOTE: "FAIR" INDICATES FEW OR NO CLOUDS BELOW 12000 FEET WITH NO
SIGNIFICANT WEATHER AND/OR OBSTRUCTIONS TO VISIBILITY.

COZ001>005-013-030-031-220900-
...NORTHWEST COLORADO...

CITY           SKY/WX    TMP DP  RH WIND       PRES   REMARKS
CRAIG          CLOUDY    34  28  79 W10       29.84R WCI  26
HAYDEN         CLOUDY    34  21  60 W20G28    29.81S WCI  22
MEEKER         CLOUDY    38  28  67 NW20      29.86R
MOUNT WERNER   NOT AVBL
STEAMBOAT SPGS CLOUDY    31  26  80 W16G22    29.79R WCI  20
WALDEN         PTCLDY    25  14  63 W22G28    29.74R WCI  10
$$

COZ006>008-011-220900-
...WEST CENTRAL VALLEYS...

CITY           SKY/WX    TMP DP  RH WIND       PRES   REMARKS
GRAND JUNCTION CLOUDY    33  32  96 CALM      29.88F
MONTROSE       CLOUDY    30  29  96 SE7       29.91R FOG     WCI  23
EAGLE          CLOUDY    34  32  93 W3        29.83R
RIFLE          CLOUDY    34  32  92 W22       29.84R WCI  22
DELTA          CLOUDY    34  33  94 N3        29.88S
NUCLA          CLOUDY    34  32  93 E6        29.97F WCI  29
$$

COZ017>023-064>068-220900-
...SOUTHWEST COLORADO...

CITY           SKY/WX    TMP DP  RH WIND       PRES   REMARKS
DURANGO        MOCLDY    41  31  67 NW23G32   29.87S
CORTEZ         CLEAR     30  28  92 NE3       29.95F
PAGOSA SPRINGS LGT SNOW  31  31 100 E3        29.88F
TELLURIDE      CLOUDY    32  31  96 W22G33    29.95F FOG     WCI  20
WOLF CREEK PAS LGT SNOW  19  19 100 MISG      29.89R VSB 1
$$

COZ009-010-012-014-032>034-037-058>063-220900-
...CENTRAL COLORADO...

CITY           SKY/WX    TMP DP  RH WIND       PRES   REMARKS
ASPEN          CLOUDY    32  28  85 N10       29.80R WCI  24
BUENA VISTA    LGT SNOW  31  30  95 NW15G22   29.72F WCI  20
COPPER MTN     CLOUDY    21  14  73 W20G46    29.74R WCI   6
BERTHOUD PASS  HVY SNOW   9   3  78 MISG      29.63R VSB<1/4
COTTONWOOD PAS LGT SNOW  32  25  74 NE6       29.73R WCI  26
GUNNISON       CLOUDY    34  28  80 SW12      29.80F WCI  25
KREMMLING      LGT SNOW  30  25  80 NW14G20   29.80R WCI  20
LEADVILLE      LGT SNOW  24  17  74 NW20G37   29.73R WCI  10
MONARCH PASS   CLOUDY    21  19  93 MISG      29.85S
SALIDA         CLOUDY    34  33  96 MISG      29.78F
SUNLIGHT       CLOUDY   N/A N/A N/A W9G26     29.85R
WILKERSON PASS LGT SNOW  19  18  93 NW14G32   29.72F WCI   6
$$

COZ069>075-220900-
...SAN LUIS VALLEY/SANGRE DE CRISTO MOUNTAINS...

CITY           SKY/WX    TMP DP  RH WIND       PRES   REMARKS
ALAMOSA        MOCLDY    28  21  75 N7        29.76R WCI  21
LA VETA PASS   CLOUDY    27  21  80 SW9G18    29.73F WCI  17
SAGUACHE       LGT SNOW  34  32  93 NW18G25   29.74S WCI  23
$$

COZ035-036-038>040-220900-
...NORTHERN COLORADO FRONT RANGE...

CITY           SKY/WX    TMP DP  RH WIND       PRES   REMARKS
DENVER INTL AP CLOUDY    33  30  88 W9        29.68R WCI  25
DMNS CITY PARK   N/A     33  32  96 SW8G14    29.71R WCI  26
AURORA         MOCLDY    33  32  99 SW10      29.70S WCI  24
FRONT RANGE AP CLOUDY    34  32  93 W9        29.69R WCI  26
ERIE MUNI ARPT   N/A     34  32  94 S6        29.69S WCI  29
BOULDER MUN AP CLOUDY    36  34  93 S5        29.68S
CENTENNIAL     LGT SNOW  32  31  96 SW10      29.71S VSB 1   WCI  24
BROOMFIELD     CLOUDY    32  32 100 SW6       29.70S WCI  26
FORT COLLINS   PTCLDY    36  21  55 N13       29.70R
LONGMONT       PTCLDY    37  29  75 CALM      29.70S
$$

COZ041-046-047-076>085-087-088-220900-
...PIKES PEAK/PALMER DIVIDE AND SOUTHERN FOOTHILLS...

CITY           SKY/WX    TMP DP  RH WIND       PRES   REMARKS
COLO. SPRINGS  LGT SNOW  34  30  85 N7        29.71S FOG     WCI  28
A. F. ACADEMY  LGT SNOW  32  32 100 N8        29.71S FOG     WCI  25
ELLICOTT       NOT AVBL
FALCON         CLOUDY    30  27  89 N16       29.70F WCI  19
FORT CARSON    FLURRIES  35  33  92 N13       29.71R WCI  26
LIMON          CLOUDY    31  29  92 W10       29.69R WCI  22
MONUMENT HILL  LGT SNOW  28  28 100 N12G17    29.70S WCI  18
TRINIDAD       LGT RAIN  40  30  67 N12G20    29.69R
$$

COZ042>045-048>051-090-091-220900-
...NORTHEAST COLORADO...

CITY           SKY/WX    TMP DP  RH WIND       PRES   REMARKS
GREELEY ARPT   MOCLDY    37  21  52 N21       29.67R
AKRON          MOCLDY    34  29  82 NW15      29.63S WCI  24
BURLINGTON     MIX PCPN  36  33  89 NW20G29   29.62S
WRAY           CLOUDY    39  31  72 NW14      29.59S
STERLING       MOCLDY    36  32  87 NW10      29.63S
HOLYOKE        CLOUDY    41  32  70 NW21      29.58S
FORT MORGAN    MOCLDY    30  27  90 W10       29.66S WCI  21
$$

COZ086-089-092>099-220900-
...SOUTHEAST COLORADO...

CITY           SKY/WX    TMP DP  RH WIND       PRES   REMARKS
PUEBLO         LGT RAIN  39  34  82 N17G28    29.70R
LA JUNTA       CLOUDY    40  33  76 N22G37    29.69R
LAMAR          CLOUDY    43  36  76 NW20      29.62R
SPRINGFIELD      N/A     38  36  92 N13       29.65R
$$



USA.gov is the U.S. government's official web portal to all federal, state and local government web resources and services.